Date,Time,Wetness (Wet Dry or Ice),Wind Speed (m/s),Temperature (C),Humidity (%),Pressure (mb),Radiation (W/m^2)
2019-12-02,00:00:00,DRY,3.77,6.93,43.0,775.00,1.0
2019-12-02,00:05:00,DRY,4.25,6.80,44.5,775.00,1.0
2019-12-02,00:10:00,DRY,3.83,6.67,48.0,775.00,1.2
2019-12-02,00:15:00,DRY,3.25,6.55,47.0,775.00,1.0
2019-12-02,00:20:00,DRY,3.70,6.60,47.7,775.00,1.4
2019-12-02,00:25:00,DRY,2.70,6.75,47.0,775.00,1.3
2019-12-02,00:30:00,DRY,3.53,6.63,48.0,775.00,1.0
2019-12-02,00:35:00,DRY,2.95,6.60,49.0,775.00,1.4
2019-12-02,00:40:00,DRY,2.93,6.57,48.3,775.00,1.2
2019-12-02,00:45:00,DRY,2.55,6.60,47.0,775.00,0.6
2019-12-02,00:50:00,DRY,3.13,6.53,46.3,775.00,0.7
2019-12-02,00:55:00,DRY,3.60,6.65,44.5,775.00,1.4
2019-12-02,01:00:00,DRY,2.97,6.83,44.3,775.00,1.4
2019-12-02,01:05:00,DRY,3.50,6.80,45.0,775.00,1.3
2019-12-02,01:10:00,DRY,3.17,6.77,46.7,775.00,1.0
2019-12-02,01:15:00,DRY,3.70,6.65,47.0,775.00,1.1
2019-12-02,01:20:00,DRY,3.77,6.77,43.7,775.00,1.1
2019-12-02,01:25:00,DRY,4.75,6.80,44.0,775.00,1.2
2019-12-02,01:30:00,DRY,4.75,6.60,42.5,775.00,1.1
2019-12-02,01:35:00,DRY,4.30,6.70,41.0,775.00,1.3
2019-12-02,01:40:00,DRY,4.43,6.63,42.3,775.00,1.1
2019-12-02,01:45:00,DRY,5.30,7.05,39.5,774.50,1.6
2019-12-02,01:50:00,DRY,4.63,6.87,42.0,774.67,1.0
2019-12-02,01:55:00,DRY,4.10,6.65,42.5,774.50,0.8
2019-12-02,02:00:00,DRY,4.07,6.87,43.3,774.00,1.0
2019-12-02,02:05:00,DRY,4.20,6.60,46.0,774.00,1.2
2019-12-02,02:10:00,DRY,4.33,6.57,46.3,774.00,1.4
2019-12-02,02:15:00,DRY,5.00,6.55,43.0,774.00,1.4
2019-12-02,02:20:00,DRY,5.00,6.87,34.7,774.00,1.3
2019-12-02,02:25:00,DRY,5.95,7.45,30.5,774.00,1.0
2019-12-02,02:30:00,DRY,4.37,7.00,33.3,774.00,1.5
2019-12-02,02:35:00,DRY,2.50,7.25,37.0,774.00,1.9
2019-12-02,02:40:00,DRY,4.77,6.90,40.3,774.00,1.2
2019-12-02,02:45:00,DRY,4.00,6.45,42.5,774.00,0.9
2019-12-02,02:50:00,DRY,4.33,6.63,41.0,774.00,1.1
2019-12-02,02:55:00,DRY,3.05,6.85,42.5,774.00,1.3
2019-12-02,03:00:00,DRY,3.87,6.60,41.7,774.00,2.1
2019-12-02,03:05:00,DRY,4.60,6.65,41.0,774.00,1.4
2019-12-02,03:10:00,DRY,4.50,6.43,43.0,774.00,1.0
2019-12-02,03:15:00,DRY,4.15,6.30,43.5,774.00,1.1
2019-12-02,03:20:00,DRY,4.70,6.40,42.7,774.00,1.0
2019-12-02,03:25:00,DRY,4.45,6.25,43.0,774.00,0.8
2019-12-02,03:30:00,DRY,4.23,6.27,42.3,774.00,0.8
2019-12-02,03:35:00,DRY,4.30,6.15,42.5,774.00,0.9
2019-12-02,03:40:00,DRY,5.13,6.27,29.0,774.00,1.2
2019-12-02,03:45:00,DRY,4.85,6.30,28.0,774.00,0.9
2019-12-02,03:50:00,DRY,5.27,6.27,32.7,774.00,1.2
2019-12-02,03:55:00,DRY,5.05,6.25,27.5,774.00,1.3
2019-12-02,04:00:00,DRY,5.67,6.23,21.7,774.00,1.2
2019-12-02,04:05:00,DRY,5.75,6.55,18.5,774.00,1.0
2019-12-02,04:10:00,DRY,5.07,6.50,17.3,774.00,1.2
2019-12-02,04:15:00,DRY,5.45,6.25,17.0,774.00,1.1
2019-12-02,04:20:00,DRY,5.33,6.43,16.7,774.00,1.1
2019-12-02,04:25:00,DRY,5.15,6.65,16.0,774.00,1.1
2019-12-02,04:30:00,DRY,4.67,6.67,15.3,774.00,1.3
2019-12-02,04:35:00,DRY,5.80,6.70,13.0,773.50,1.4
2019-12-02,04:40:00,DRY,5.13,6.80,13.7,773.67,1.5
2019-12-02,04:45:00,DRY,5.50,6.85,13.0,773.50,1.3
2019-12-02,04:50:00,DRY,5.33,6.80,13.3,773.33,0.9
2019-12-02,04:55:00,DRY,4.20,6.70,13.0,773.50,0.3
2019-12-02,05:00:00,DRY,4.97,6.60,13.7,773.00,1.1
2019-12-02,05:05:00,DRY,4.85,6.60,14.0,773.00,1.2
2019-12-02,05:10:00,DRY,5.63,6.77,14.0,773.00,1.7
2019-12-02,05:15:00,DRY,4.25,6.60,13.5,773.00,1.3
2019-12-02,05:20:00,DRY,4.73,6.70,12.7,773.00,1.0
2019-12-02,05:25:00,DRY,5.30,6.85,12.5,773.00,1.1
2019-12-02,05:30:00,DRY,5.70,6.83,12.7,773.00,1.0
2019-12-02,05:35:00,DRY,3.95,6.45,14.5,773.00,0.5
2019-12-02,05:40:00,DRY,4.83,6.60,15.0,773.00,0.8
2019-12-02,05:45:00,DRY,6.10,6.35,16.0,773.00,1.2
2019-12-02,05:50:00,DRY,5.27,6.27,17.3,773.00,1.8
2019-12-02,05:55:00,DRY,5.15,6.40,19.5,773.00,1.4
2019-12-02,06:00:00,DRY,5.07,6.40,19.0,773.00,1.4
2019-12-02,06:05:00,DRY,5.45,6.55,21.0,773.00,1.2
2019-12-02,06:10:00,DRY,5.27,6.47,21.7,773.00,1.1
2019-12-02,06:15:00,DRY,6.50,6.95,20.0,773.00,1.5
2019-12-02,06:20:00,DRY,6.17,7.20,20.0,773.00,1.5
2019-12-02,06:25:00,DRY,6.25,7.25,19.5,773.00,1.0
2019-12-02,06:30:00,DRY,6.47,7.10,22.3,773.00,1.0
2019-12-02,06:35:00,DRY,5.90,6.95,22.0,773.00,0.6
2019-12-02,06:40:00,DRY,6.10,6.83,21.7,773.00,1.2
2019-12-02,06:45:00,DRY,5.30,6.55,23.0,773.00,1.4
2019-12-02,06:50:00,DRY,6.73,6.63,23.0,773.00,1.1
2019-12-02,06:55:00,DRY,6.80,6.35,26.0,773.00,1.4
2019-12-02,07:00:00,DRY,6.43,6.30,25.3,773.00,1.1
2019-12-02,07:05:00,DRY,6.30,6.30,21.5,773.00,1.5
2019-12-02,07:10:00,DRY,7.60,6.57,19.7,773.00,0.7
2019-12-02,07:15:00,DRY,7.90,6.45,18.5,773.00,1.3
2019-12-02,07:20:00,DRY,6.60,6.63,15.7,773.00,1.2
2019-12-02,07:25:00,DRY,6.50,6.55,15.0,773.00,1.2
2019-12-02,07:30:00,DRY,6.13,6.70,12.7,773.00,1.7
2019-12-02,07:35:00,DRY,7.05,6.90,12.5,773.00,3.7
2019-12-02,07:40:00,DRY,6.07,6.73,13.0,773.00,4.4
2019-12-02,07:45:00,DRY,6.55,6.95,12.5,773.00,6.5
2019-12-02,07:50:00,DRY,6.53,6.93,12.3,773.00,9.2
2019-12-02,07:55:00,DRY,7.05,7.05,12.0,773.00,11.7
2019-12-02,08:00:00,DRY,5.50,7.07,13.0,773.00,13.9
2019-12-02,08:05:00,DRY,6.55,7.05,14.0,773.00,16.2
2019-12-02,08:10:00,DRY,6.50,7.03,16.3,773.00,18.7
2019-12-02,08:15:00,DRY,6.05,7.30,20.5,773.00,21.0
2019-12-02,08:20:00,DRY,7.23,7.33,25.7,773.00,23.6
2019-12-02,08:25:00,DRY,6.95,7.50,26.5,773.00,25.8
2019-12-02,08:30:00,DRY,8.40,7.70,26.3,773.00,142.1
2019-12-02,08:35:00,DRY,7.50,7.95,25.5,773.00,181.1
2019-12-02,08:40:00,DRY,7.90,8.10,23.7,773.00,200.8
2019-12-02,08:45:00,DRY,6.60,7.65,23.0,773.00,220.3
2019-12-02,08:50:00,DRY,7.43,7.37,23.7,773.00,240.2
2019-12-02,08:55:00,DRY,6.05,7.50,23.0,773.00,260.0
2019-12-02,09:00:00,DRY,5.43,7.20,23.0,773.00,279.9
2019-12-02,09:05:00,DRY,7.20,6.95,23.0,773.00,298.9
2019-12-02,09:10:00,DRY,6.93,6.87,24.3,773.00,318.4
2019-12-02,09:15:00,DRY,7.20,6.90,25.5,773.00,338.0
2019-12-02,09:20:00,DRY,7.60,6.93,26.7,773.00,356.5
2019-12-02,09:25:00,DRY,5.55,7.00,27.0,773.00,375.3
2019-12-02,09:30:00,DRY,5.97,6.93,26.3,773.00,394.3
2019-12-02,09:35:00,DRY,5.65,7.25,25.0,773.00,412.4
2019-12-02,09:40:00,DRY,5.20,7.53,24.3,773.00,430.7
2019-12-02,09:45:00,DRY,4.85,7.45,23.5,773.00,447.8
2019-12-02,09:50:00,DRY,6.80,7.63,22.0,773.00,465.3
2019-12-02,09:55:00,DRY,4.85,8.45,19.5,773.00,483.0
2019-12-02,10:00:00,DRY,5.50,7.97,21.3,773.00,499.6
2019-12-02,10:05:00,DRY,6.00,7.55,22.0,773.00,515.7
2019-12-02,10:10:00,DRY,7.77,7.53,19.3,773.00,531.7
2019-12-02,10:15:00,DRY,8.05,8.00,16.5,773.00,547.2
2019-12-02,10:20:00,DRY,7.10,8.27,18.0,773.00,561.5
2019-12-02,10:25:00,DRY,8.25,8.55,15.5,773.00,576.4
2019-12-02,10:30:00,DRY,8.13,8.60,15.0,773.00,590.9
2019-12-02,10:35:00,DRY,7.55,8.50,14.5,773.00,604.6
2019-12-02,10:40:00,DRY,8.23,8.57,10.7,773.00,618.1
2019-12-02,10:45:00,DRY,7.70,8.30,10.5,773.00,630.8
2019-12-02,10:50:00,DRY,7.10,8.53,7.3,773.00,642.8
2019-12-02,10:55:00,DRY,6.10,8.60,7.0,773.00,656.4
2019-12-02,11:00:00,DRY,7.37,8.37,6.3,773.00,668.4
2019-12-02,11:05:00,DRY,8.85,8.35,6.5,773.00,679.2
2019-12-02,11:10:00,DRY,7.30,8.43,7.0,773.00,689.6
2019-12-02,11:15:00,DRY,8.25,8.20,6.5,773.00,700.3
2019-12-02,11:20:00,DRY,6.77,8.30,5.0,773.00,710.4
2019-12-02,11:25:00,DRY,6.85,8.40,5.0,773.00,719.8
2019-12-02,11:30:00,DRY,7.37,8.30,4.7,773.00,728.9
2019-12-02,11:35:00,DRY,6.85,8.25,4.0,773.00,736.9
2019-12-02,11:40:00,DRY,6.97,8.33,4.0,773.00,745.4
2019-12-02,11:45:00,DRY,5.80,8.45,4.5,773.00,753.6
2019-12-02,11:50:00,DRY,6.43,8.43,4.7,773.00,759.3
2019-12-02,11:55:00,DRY,6.50,8.45,5.5,773.00,765.6
2019-12-02,12:00:00,DRY,6.40,8.53,3.3,772.67,771.1
2019-12-02,12:05:00,DRY,7.15,8.50,4.0,773.00,776.3
2019-12-02,12:10:00,DRY,5.67,8.60,4.3,772.67,780.7
2019-12-02,12:15:00,DRY,4.85,8.70,4.5,772.00,785.3
2019-12-02,12:20:00,DRY,5.43,8.73,4.3,772.00,788.2
2019-12-02,12:25:00,DRY,5.50,8.75,4.5,772.00,792.4
2019-12-02,12:30:00,DRY,5.87,8.67,4.3,772.00,795.3
2019-12-02,12:35:00,DRY,6.95,8.75,3.0,772.00,797.7
2019-12-02,12:40:00,DRY,7.00,8.83,3.7,772.00,800.5
2019-12-02,12:45:00,DRY,5.95,9.00,4.5,772.00,801.5
2019-12-02,12:50:00,DRY,6.73,9.07,4.0,772.00,801.8
2019-12-02,12:55:00,DRY,5.75,9.25,4.0,772.00,802.6
2019-12-02,13:00:00,DRY,6.37,9.27,3.7,772.00,802.6
2019-12-02,13:05:00,DRY,5.50,9.10,4.0,772.00,802.4
2019-12-02,13:10:00,DRY,5.17,9.17,4.3,772.00,800.8
2019-12-02,13:15:00,DRY,5.50,9.40,3.0,772.00,800.0
2019-12-02,13:20:00,DRY,6.17,9.13,3.7,772.00,796.8
2019-12-02,13:25:00,DRY,6.35,9.25,4.0,771.50,794.4
2019-12-02,13:30:00,,,,,,
2019-12-02,13:35:00,DRY,6.20,8.80,3.0,771.00,787.0
2019-12-02,13:40:00,DRY,5.63,8.83,3.7,772.00,782.9
2019-12-02,13:45:00,DRY,6.85,8.85,3.0,771.00,778.8
2019-12-02,13:50:00,DRY,5.90,8.80,4.0,771.00,774.0
2019-12-02,13:55:00,DRY,5.85,9.20,4.0,771.00,767.8
2019-12-02,14:00:00,DRY,5.70,9.07,4.3,771.00,762.1
2019-12-02,14:05:00,DRY,7.70,8.75,5.5,771.00,755.1
2019-12-02,14:10:00,DRY,6.30,9.20,3.3,771.00,748.0
2019-12-02,14:15:00,DRY,6.25,9.15,4.5,771.00,740.8
2019-12-02,14:20:00,DRY,6.13,9.07,3.7,771.00,732.4
2019-12-02,14:25:00,DRY,6.70,9.30,3.5,771.00,724.4
2019-12-02,14:30:00,DRY,6.40,9.33,3.3,771.00,714.8
2019-12-02,14:35:00,DRY,6.55,9.40,2.5,771.00,706.0
2019-12-02,14:40:00,DRY,7.67,9.40,3.0,771.00,695.6
2019-12-02,14:45:00,DRY,7.25,9.40,2.5,771.00,685.2
2019-12-02,14:50:00,DRY,6.77,9.23,3.7,771.00,673.9
2019-12-02,14:55:00,DRY,7.05,9.10,3.0,771.00,662.8
2019-12-02,15:00:00,DRY,6.50,9.30,3.3,771.00,649.7
2019-12-02,15:05:00,DRY,7.30,8.95,4.5,771.00,637.2
2019-12-02,15:10:00,DRY,8.37,9.00,3.7,771.00,624.7
2019-12-02,15:15:00,DRY,9.45,9.20,2.5,771.00,610.9
2019-12-02,15:20:00,DRY,6.97,8.97,3.3,771.00,597.6
2019-12-02,15:25:00,DRY,7.45,8.85,2.5,771.00,583.1
2019-12-02,15:30:00,DRY,8.10,8.73,3.7,770.67,569.3
2019-12-02,15:35:00,DRY,8.10,8.80,3.0,771.00,555.0
2019-12-02,15:40:00,DRY,7.90,8.63,2.7,771.00,539.5
2019-12-02,15:45:00,DRY,9.10,8.50,2.0,771.00,520.7
2019-12-02,15:50:00,DRY,8.53,8.37,3.3,771.00,507.7
2019-12-02,15:55:00,DRY,8.20,8.45,2.0,771.00,491.8
2019-12-02,16:00:00,DRY,10.73,8.50,3.0,770.67,475.0
2019-12-02,16:05:00,DRY,7.50,8.20,3.5,771.00,458.0
2019-12-02,16:10:00,DRY,9.50,8.10,4.0,770.33,439.8
2019-12-02,16:15:00,DRY,7.65,8.20,3.5,771.00,422.7
2019-12-02,16:20:00,DRY,8.07,7.87,5.0,771.00,405.5
2019-12-02,16:25:00,DRY,7.45,8.25,3.5,770.50,386.1
2019-12-02,16:30:00,DRY,9.67,8.00,4.0,770.33,368.2
2019-12-02,16:35:00,DRY,9.35,7.95,3.5,770.50,348.5
2019-12-02,16:40:00,DRY,8.57,8.10,3.3,770.00,329.7
2019-12-02,16:45:00,DRY,9.60,7.90,5.5,770.00,310.1
2019-12-02,16:50:00,DRY,8.53,8.13,4.0,770.67,290.6
2019-12-02,16:55:00,DRY,8.45,7.95,6.0,770.50,271.5
2019-12-02,17:00:00,DRY,8.80,7.97,4.7,770.33,251.9
2019-12-02,17:05:00,DRY,7.75,7.75,6.5,770.00,232.6
2019-12-02,17:10:00,DRY,8.00,8.07,4.3,770.33,213.2
2019-12-02,17:15:00,DRY,9.45,8.05,4.5,770.00,194.8
2019-12-02,17:20:00,DRY,8.27,7.90,6.0,770.33,176.4
2019-12-02,17:25:00,DRY,8.90,7.35,8.0,770.50,158.8
2019-12-02,17:30:00,DRY,8.30,7.33,8.7,770.00,139.5
2019-12-02,17:35:00,DRY,8.15,7.50,8.0,771.00,115.7
2019-12-02,17:40:00,DRY,8.70,7.50,8.0,771.00,91.2
2019-12-02,17:45:00,DRY,7.80,7.55,8.0,771.00,69.9
2019-12-02,17:50:00,DRY,7.40,7.07,9.7,771.00,51.9
2019-12-02,17:55:00,DRY,9.25,7.10,9.0,770.00,36.8
2019-12-02,18:00:00,DRY,8.53,7.27,9.3,770.33,25.0
2019-12-02,18:05:00,DRY,9.30,7.05,10.0,770.00,17.8
2019-12-02,18:10:00,DRY,7.37,6.90,12.0,770.67,13.7
2019-12-02,18:15:00,DRY,7.80,6.95,13.0,771.00,10.9
2019-12-02,18:20:00,DRY,8.30,6.57,12.3,770.67,6.0
2019-12-02,18:25:00,DRY,8.20,6.50,14.0,770.00,3.4
2019-12-02,18:30:00,DRY,7.47,6.80,11.7,770.67,2.3
2019-12-02,18:35:00,DRY,9.95,6.75,10.5,770.50,1.6
2019-12-02,18:40:00,DRY,10.10,6.57,14.7,770.67,1.3
2019-12-02,18:45:00,DRY,8.30,6.60,15.0,770.00,1.5
2019-12-02,18:50:00,DRY,9.53,6.53,14.7,770.00,1.2
2019-12-02,18:55:00,DRY,11.05,6.35,16.0,770.00,1.1
2019-12-02,19:00:00,DRY,8.33,6.27,21.0,770.00,1.4
2019-12-02,19:05:00,DRY,10.00,6.25,22.5,770.00,0.9
2019-12-02,19:10:00,DRY,9.40,6.00,26.7,770.00,1.3
2019-12-02,19:15:00,DRY,9.45,5.70,34.5,770.50,1.3
2019-12-02,19:20:00,DRY,9.93,5.33,40.3,770.33,1.3
2019-12-02,19:25:00,DRY,9.75,4.75,54.0,770.50,1.2
2019-12-02,19:30:00,DRY,11.10,4.33,49.0,770.00,1.2
2019-12-02,19:35:00,DRY,11.55,5.85,28.5,770.00,1.3
2019-12-02,19:40:00,DRY,9.37,5.13,44.3,770.33,1.4
2019-12-02,19:45:00,DRY,10.65,4.20,55.5,770.00,0.9
2019-12-02,19:50:00,DRY,11.30,4.40,38.0,770.00,1.5
2019-12-02,19:55:00,DRY,10.10,4.75,32.0,770.00,1.6
2019-12-02,20:00:00,DRY,10.40,5.20,29.0,770.33,1.2
2019-12-02,20:05:00,DRY,9.60,5.45,31.5,770.50,1.5
2019-12-02,20:10:00,DRY,10.43,4.67,45.0,770.00,1.2
2019-12-02,20:15:00,DRY,8.90,4.80,43.5,770.50,1.1
2019-12-02,20:20:00,DRY,11.07,4.67,45.3,770.00,1.3
2019-12-02,20:25:00,DRY,9.60,4.55,47.0,770.50,1.0
2019-12-02,20:30:00,DRY,10.07,5.10,37.0,771.00,1.2
2019-12-02,20:35:00,DRY,11.20,5.20,30.5,770.50,1.2
2019-12-02,20:40:00,DRY,9.13,4.50,45.7,771.00,1.1
2019-12-02,20:45:00,DRY,11.50,4.95,30.5,771.00,1.2
2019-12-02,20:50:00,DRY,7.90,5.40,38.7,771.00,0.8
2019-12-02,20:55:00,DRY,8.30,4.30,40.5,771.00,1.0
2019-12-02,21:00:00,DRY,7.80,3.23,70.3,771.00,1.1
2019-12-02,21:05:00,DRY,9.45,3.25,66.0,771.00,1.2
2019-12-02,21:10:00,DRY,10.30,3.87,48.7,770.33,1.6
2019-12-02,21:15:00,DRY,11.65,4.80,39.5,771.00,1.2
2019-12-02,21:20:00,DRY,11.07,5.83,33.3,771.00,1.1
2019-12-02,21:25:00,DRY,10.15,4.80,40.5,771.00,1.1
2019-12-02,21:30:00,DRY,9.97,4.97,47.3,771.00,1.3
2019-12-02,21:35:00,DRY,8.75,3.95,64.0,771.00,1.1
2019-12-02,21:40:00,DRY,9.47,3.13,90.0,770.67,1.1
2019-12-02,21:45:00,DRY,9.60,3.30,97.0,770.50,1.0
2019-12-02,21:50:00,DRY,7.90,3.40,97.7,770.67,35.9
2019-12-02,21:55:00,WET,7.45,3.50,98.0,771.00,55.3
2019-12-02,22:00:00,DRY,9.00,3.53,98.3,770.00,63.8
2019-12-02,22:05:00,DRY,8.85,3.55,99.0,770.50,92.8
2019-12-02,22:10:00,DRY,8.43,3.40,99.0,770.00,115.6
2019-12-02,22:15:00,DRY,7.60,3.45,99.0,771.00,130.8
2019-12-02,22:20:00,DRY,8.87,3.07,99.0,770.33,117.1
2019-12-02,22:25:00,DRY,8.70,3.25,99.0,771.00,101.2
2019-12-02,22:30:00,DRY,7.77,3.37,98.3,770.33,112.8
2019-12-02,22:35:00,DRY,9.65,3.20,97.0,770.50,98.8
2019-12-02,22:40:00,DRY,8.63,3.57,81.7,771.00,87.6
2019-12-02,22:45:00,DRY,10.10,3.95,76.0,770.00,77.2
2019-12-02,22:50:00,DRY,10.27,3.47,78.7,770.33,67.7
2019-12-02,22:55:00,DRY,11.55,4.15,59.0,770.00,61.0
2019-12-02,23:00:00,DRY,11.07,4.23,54.7,770.00,41.5
2019-12-02,23:05:00,DRY,9.65,4.55,46.0,770.50,27.1
2019-12-02,23:10:00,DRY,10.80,4.83,40.7,770.33,33.4
2019-12-02,23:15:00,DRY,12.70,5.45,34.0,770.00,35.7
2019-12-02,23:20:00,DRY,10.67,4.17,55.3,770.00,35.6
2019-12-02,23:25:00,DRY,9.60,3.45,60.0,770.00,32.6
2019-12-02,23:30:00,DRY,12.10,4.37,50.7,770.00,26.9
2019-12-02,23:35:00,DRY,9.75,3.70,65.5,770.00,19.2
2019-12-02,23:40:00,DRY,11.30,2.63,74.7,770.00,14.7
2019-12-02,23:45:00,DRY,10.05,4.30,56.0,770.00,2.7
2019-12-02,23:50:00,DRY,11.17,4.40,41.3,770.00,1.2
2019-12-02,23:55:00,DRY,9.95,4.50,45.0,770.00,0.8
2019-12-03,00:00:00,DRY,11.77,4.47,44.7,770.00,1.6
2019-12-03,00:05:00,DRY,9.95,4.55,43.0,770.00,1.1
2019-12-03,00:10:00,DRY,8.70,4.07,60.3,770.00,1.2
2019-12-03,00:15:00,DRY,9.95,3.20,74.0,770.00,1.1
2019-12-03,00:20:00,DRY,11.30,3.10,58.3,770.00,1.3
2019-12-03,00:25:00,DRY,13.15,4.95,28.5,770.00,1.1
2019-12-03,00:30:00,DRY,9.17,5.17,36.7,770.00,0.9
2019-12-03,00:35:00,DRY,11.85,5.10,34.0,770.00,0.7
2019-12-03,00:40:00,DRY,10.50,5.10,40.7,770.00,1.0
2019-12-03,00:45:00,DRY,9.10,6.25,35.0,770.00,1.2
2019-12-03,00:50:00,DRY,9.33,4.50,48.3,770.00,1.3
2019-12-03,00:55:00,DRY,11.15,3.15,69.0,770.00,0.7
2019-12-03,01:00:00,DRY,11.53,4.57,48.7,770.00,1.3
2019-12-03,01:05:00,DRY,11.70,3.70,57.5,769.50,1.1
2019-12-03,01:10:00,DRY,10.43,4.20,45.7,770.00,1.1
2019-12-03,01:15:00,DRY,12.85,6.00,24.5,769.50,1.1
2019-12-03,01:20:00,DRY,10.07,5.90,34.0,770.00,1.1
2019-12-03,01:25:00,DRY,10.05,3.70,57.0,769.50,1.6
2019-12-03,01:30:00,DRY,12.53,4.93,40.0,769.00,1.0
2019-12-03,01:35:00,DRY,11.10,5.95,29.5,769.50,1.1
2019-12-03,01:40:00,DRY,10.23,5.87,30.0,769.33,1.4
2019-12-03,01:45:00,DRY,9.20,5.10,39.5,769.00,1.2
2019-12-03,01:50:00,DRY,10.70,5.60,27.0,769.33,1.1
2019-12-03,01:55:00,DRY,9.95,5.20,31.0,769.00,1.1
2019-12-03,02:00:00,DRY,10.07,5.37,28.0,769.00,0.9
2019-12-03,02:05:00,DRY,11.40,5.85,23.0,769.00,2.0
2019-12-03,02:10:00,DRY,9.67,5.93,31.3,769.00,0.8
2019-12-03,02:15:00,DRY,14.00,4.80,33.0,769.00,1.0
2019-12-03,02:20:00,DRY,11.33,6.53,22.0,769.00,1.0
2019-12-03,02:25:00,DRY,9.60,5.70,24.5,769.00,0.8
2019-12-03,02:30:00,DRY,10.40,5.10,38.3,769.00,1.2
2019-12-03,02:35:00,DRY,9.75,5.45,30.0,769.00,1.1
2019-12-03,02:40:00,DRY,10.93,5.07,31.7,769.00,1.2
2019-12-03,02:45:00,DRY,9.40,4.60,42.0,769.00,1.4
2019-12-03,02:50:00,DRY,9.73,5.57,31.0,769.00,0.9
2019-12-03,02:55:00,DRY,6.95,5.85,34.0,769.50,1.1
2019-12-03,03:00:00,DRY,8.57,4.23,56.7,769.00,0.8
2019-12-03,03:05:00,DRY,8.40,3.20,76.5,769.00,1.1
2019-12-03,03:10:00,DRY,9.50,3.97,60.7,769.00,1.3
2019-12-03,03:15:00,DRY,10.75,3.65,57.0,769.00,1.3
2019-12-03,03:20:00,DRY,8.87,3.90,62.7,769.00,1.7
2019-12-03,03:25:00,DRY,12.15,4.40,42.5,769.00,1.1
2019-12-03,03:30:00,DRY,9.20,5.57,41.7,769.33,1.0
2019-12-03,03:35:00,DRY,6.25,4.00,58.5,769.50,1.0
2019-12-03,03:40:00,DRY,4.90,2.07,88.7,770.00,3.7
2019-12-03,03:45:00,DRY,6.55,1.90,96.5,769.00,30.7
2019-12-03,03:50:00,DRY,8.77,2.13,98.0,769.00,46.9
2019-12-03,03:55:00,DRY,9.50,2.05,98.0,769.00,50.0
2019-12-03,04:00:00,DRY,7.17,1.93,98.0,769.00,46.9
2019-12-03,04:05:00,DRY,9.75,2.20,98.0,769.00,54.0
2019-12-03,04:10:00,DRY,10.13,2.43,98.7,769.00,54.2
2019-12-03,04:15:00,DRY,9.05,2.45,99.0,769.00,56.5
2019-12-03,04:20:00,DRY,8.33,2.57,99.0,769.00,54.6
2019-12-03,04:25:00,DRY,9.45,2.60,99.0,769.00,52.9
2019-12-03,04:30:00,DRY,7.70,2.67,99.0,769.00,59.1
2019-12-03,04:35:00,DRY,7.40,2.70,99.0,769.00,57.8
2019-12-03,04:40:00,DRY,8.37,2.50,99.0,769.00,53.1
2019-12-03,04:45:00,DRY,7.55,1.90,99.0,769.00,52.5
2019-12-03,04:50:00,DRY,8.30,1.53,99.0,769.00,56.1
2019-12-03,04:55:00,DRY,8.05,1.55,99.0,769.00,62.5
2019-12-03,05:00:00,DRY,9.90,1.73,91.3,769.00,56.1
2019-12-03,05:05:00,DRY,9.70,2.30,72.0,769.00,44.6
2019-12-03,05:10:00,DRY,8.97,2.47,69.0,769.00,38.0
2019-12-03,05:15:00,DRY,8.05,1.10,92.5,769.00,41.8
2019-12-03,05:20:00,DRY,9.17,1.23,96.7,769.00,49.5
2019-12-03,05:25:00,DRY,8.95,1.35,98.0,769.00,58.2
2019-12-03,05:30:00,DRY,9.07,1.47,89.3,769.00,55.5
2019-12-03,05:35:00,DRY,5.55,1.95,83.5,769.00,45.6
2019-12-03,05:40:00,DRY,7.20,0.97,96.0,769.00,81.7
2019-12-03,05:45:00,DRY,7.15,1.85,74.0,769.00,64.5
2019-12-03,05:50:00,DRY,4.77,0.93,93.7,769.00,73.9
2019-12-03,05:55:00,DRY,6.20,1.05,97.5,769.00,86.5
2019-12-03,06:00:00,DRY,8.50,1.30,98.0,769.00,81.8
2019-12-03,06:05:00,DRY,8.65,1.40,98.0,769.00,88.8
2019-12-03,06:10:00,DRY,9.33,0.80,98.0,769.00,86.7
2019-12-03,06:15:00,DRY,7.40,0.90,87.5,769.00,70.7
2019-12-03,06:20:00,DRY,7.33,2.00,65.3,769.33,54.1
2019-12-03,06:25:00,DRY,7.45,2.55,62.5,769.00,55.2
2019-12-03,06:30:00,DRY,8.00,2.83,44.7,769.33,54.9
2019-12-03,06:35:00,DRY,7.10,2.75,50.0,769.00,42.6
2019-12-03,06:40:00,DRY,8.30,2.23,68.7,769.33,42.5
2019-12-03,06:45:00,DRY,7.80,2.05,82.5,769.50,45.8
2019-12-03,06:50:00,DRY,7.90,1.37,95.7,769.33,49.9
2019-12-03,06:55:00,DRY,7.50,1.80,98.0,769.00,57.5
2019-12-03,07:00:00,DRY,6.67,1.77,98.0,770.00,61.8
2019-12-03,07:05:00,DRY,8.05,1.75,98.0,769.50,63.7
2019-12-03,07:10:00,DRY,7.80,1.53,98.3,769.67,68.9
2019-12-03,07:15:00,DRY,10.40,1.60,99.0,770.00,76.0
2019-12-03,07:20:00,DRY,7.40,1.37,99.0,770.00,80.1
2019-12-03,07:25:00,DRY,8.70,1.50,99.0,770.00,77.9
2019-12-03,07:30:00,DRY,8.07,1.07,92.7,770.00,70.0
2019-12-03,07:35:00,DRY,7.75,1.15,96.5,770.00,74.4
2019-12-03,07:40:00,DRY,10.60,1.57,75.3,770.00,62.1
2019-12-03,07:45:00,DRY,9.65,2.50,61.5,770.00,58.2
2019-12-03,07:50:00,DRY,9.20,2.50,59.3,770.00,68.3
2019-12-03,07:55:00,DRY,9.40,3.15,45.5,770.00,70.5
2019-12-03,08:00:00,DRY,10.33,3.63,38.7,770.00,69.7
2019-12-03,08:05:00,DRY,10.15,3.50,39.0,770.00,64.3
2019-12-03,08:10:00,DRY,9.67,3.90,37.7,770.00,43.7
2019-12-03,08:15:00,DRY,9.50,3.90,33.5,770.00,38.6
2019-12-03,08:20:00,DRY,9.03,4.30,30.0,770.00,47.8
2019-12-03,08:25:00,DRY,9.75,4.35,29.5,770.00,55.9
2019-12-03,08:30:00,DRY,10.03,4.70,26.3,770.00,149.2
2019-12-03,08:35:00,DRY,7.50,4.40,29.5,770.00,204.6
2019-12-03,08:40:00,DRY,8.50,4.77,22.0,770.00,224.6
2019-12-03,08:45:00,DRY,8.05,4.75,24.5,770.00,244.8
2019-12-03,08:50:00,DRY,7.00,4.77,29.0,770.33,261.4
2019-12-03,08:55:00,DRY,7.35,4.25,28.5,770.50,279.2
2019-12-03,09:00:00,DRY,7.07,4.87,22.3,770.67,292.2
2019-12-03,09:05:00,DRY,6.30,4.90,24.0,770.00,297.2
2019-12-03,09:10:00,DRY,7.10,4.90,22.3,770.00,308.2
2019-12-03,09:15:00,DRY,7.55,5.45,21.5,770.00,327.0
2019-12-03,09:20:00,DRY,9.00,5.33,22.0,770.00,345.7
2019-12-03,09:25:00,DRY,8.30,5.50,20.5,770.00,364.8
2019-12-03,09:30:00,DRY,6.93,5.57,19.3,770.00,382.4
2019-12-03,09:35:00,DRY,7.40,5.95,17.0,771.00,399.9
2019-12-03,09:40:00,DRY,9.37,5.83,23.0,770.33,419.0
2019-12-03,09:45:00,DRY,9.35,6.65,20.0,771.00,437.4
2019-12-03,09:50:00,DRY,8.30,6.63,17.7,770.67,452.8
2019-12-03,09:55:00,DRY,8.20,7.10,16.5,770.00,470.6
2019-12-03,10:00:00,DRY,7.93,7.07,16.7,771.00,487.1
2019-12-03,10:05:00,DRY,8.15,6.80,16.5,771.00,503.1
2019-12-03,10:10:00,DRY,6.30,7.10,16.7,771.00,518.9
2019-12-03,10:15:00,DRY,7.85,6.75,17.5,771.00,534.9
2019-12-03,10:20:00,DRY,7.87,6.90,17.3,771.00,548.8
2019-12-03,10:25:00,DRY,7.45,7.20,16.5,771.00,564.3
2019-12-03,10:30:00,DRY,8.77,7.50,14.3,771.00,577.7
2019-12-03,10:35:00,DRY,7.75,7.90,14.5,771.00,591.1
2019-12-03,10:40:00,DRY,7.00,7.17,16.7,771.00,604.9
2019-12-03,10:45:00,DRY,7.40,7.70,13.0,771.00,617.7
2019-12-03,10:50:00,DRY,6.50,7.27,16.7,771.00,628.8
2019-12-03,10:55:00,DRY,7.70,7.50,13.0,771.00,640.9
2019-12-03,11:00:00,DRY,7.97,7.13,16.3,771.00,651.8
2019-12-03,11:05:00,DRY,6.65,7.40,14.5,771.00,663.5
2019-12-03,11:10:00,DRY,7.10,7.43,14.3,771.00,674.3
2019-12-03,11:15:00,DRY,4.90,7.65,15.0,771.00,686.2
2019-12-03,11:20:00,DRY,5.20,7.20,19.7,771.00,694.9
2019-12-03,11:25:00,DRY,8.05,7.35,20.5,771.00,703.1
2019-12-03,11:30:00,DRY,7.10,7.80,17.3,771.00,712.7
2019-12-03,11:35:00,,,,,,
2019-12-03,11:40:00,DRY,6.47,6.57,26.7,771.00,728.8
2019-12-03,11:45:00,DRY,6.65,6.85,27.0,771.00,735.3
2019-12-03,11:50:00,DRY,7.83,6.93,28.3,771.00,743.7
2019-12-03,11:55:00,DRY,8.10,7.75,15.5,771.00,750.5
2019-12-03,12:00:00,DRY,5.87,7.87,22.0,771.00,753.4
2019-12-03,12:05:00,DRY,7.75,7.75,20.0,771.00,760.9
2019-12-03,12:10:00,DRY,7.23,7.67,22.0,771.00,764.9
2019-12-03,12:15:00,DRY,6.60,7.55,23.0,771.00,769.0
2019-12-03,12:20:00,DRY,6.07,7.50,21.3,771.00,773.1
2019-12-03,12:25:00,DRY,6.60,7.70,20.0,771.00,775.0
2019-12-03,12:30:00,DRY,5.47,7.67,21.0,771.00,779.8
2019-12-03,12:35:00,DRY,6.05,7.65,20.5,771.00,781.8
2019-12-03,12:40:00,DRY,7.03,8.00,20.3,771.00,783.8
2019-12-03,12:45:00,DRY,5.00,7.65,18.0,771.00,785.7
2019-12-03,12:50:00,DRY,4.90,7.67,20.3,771.00,785.1
2019-12-03,12:55:00,DRY,6.50,7.75,17.5,771.00,786.9
2019-12-03,13:00:00,DRY,6.37,7.73,17.7,771.00,786.7
2019-12-03,13:05:00,DRY,5.60,7.80,14.0,771.00,786.8
2019-12-03,13:10:00,DRY,5.37,8.00,15.0,771.00,785.1
2019-12-03,13:15:00,DRY,5.95,7.85,16.5,771.00,783.5
2019-12-03,13:20:00,DRY,4.80,7.67,15.3,770.67,782.2
2019-12-03,13:25:00,DRY,4.20,7.45,19.0,771.00,778.8
2019-12-03,13:30:00,DRY,4.80,7.50,16.0,771.00,777.6
2019-12-03,13:35:00,DRY,6.80,7.30,16.0,770.00,773.0
2019-12-03,13:40:00,DRY,6.33,7.57,15.0,771.00,768.7
2019-12-03,13:45:00,DRY,4.45,7.40,19.0,771.00,764.8
2019-12-03,13:50:00,DRY,5.00,7.40,19.3,770.33,760.4
2019-12-03,13:55:00,DRY,5.60,8.10,13.5,770.50,755.0
2019-12-03,14:00:00,DRY,4.10,8.07,17.3,770.33,748.6
2019-12-03,14:05:00,DRY,5.55,8.55,13.0,770.50,743.1
2019-12-03,14:10:00,DRY,5.17,8.23,19.0,770.00,735.4
2019-12-03,14:15:00,DRY,5.05,8.25,19.0,770.00,729.1
2019-12-03,14:20:00,DRY,5.93,7.57,19.7,770.00,721.4
2019-12-03,14:25:00,DRY,4.85,7.60,21.0,770.00,712.9
2019-12-03,14:30:00,DRY,5.80,8.07,16.3,770.33,703.7
2019-12-03,14:35:00,DRY,6.00,8.00,17.0,770.00,694.3
2019-12-03,14:40:00,DRY,5.00,7.77,18.7,770.67,685.0
2019-12-03,14:45:00,DRY,4.15,7.70,21.0,770.00,674.8
2019-12-03,14:50:00,DRY,5.23,7.27,29.0,770.00,664.1
2019-12-03,14:55:00,DRY,5.65,6.75,30.0,770.00,653.4
2019-12-03,15:00:00,DRY,5.77,7.17,23.3,770.67,641.3